| time (UTC) | temp F | wind direction | speed MPH | gust MPH | rain 1hr in | rain 24hr in | rain mn in | humidity % | barometer mb |
| 20260902191527 | 89 | 264 | 5.0 | 14.0 | 0.00 | 0.00 | 0.00 | 25 | 1022.7 |
| 20260902190043 | 89 | 230 | 0.0 | 10.0 | 0.00 | 0.00 | 0.00 | 26 | 1022.8 |
| 20260902184544 | 88 | 202 | 3.0 | 13.0 | 0.00 | 0.00 | 0.00 | 27 | 1023.2 |
| 20260902183039 | 88 | 240 | 7.0 | 14.0 | 0.00 | 0.00 | 0.00 | 27 | 1023.4 |
| 20260902181529 | 88 | 239 | 7.0 | 16.0 | 0.00 | 0.00 | 0.00 | 28 | 1023.6 |
| 20260902180025 | 86 | 250 | 1.0 | 12.0 | 0.00 | 0.00 | 0.00 | 29 | 1023.8 |
| 20260902174524 | 86 | 228 | 4.0 | 12.0 | 0.00 | 0.00 | 0.00 | 30 | 1023.9 |
| 20260902173020 | 85 | 262 | 0.0 | 10.0 | 0.00 | 0.00 | 0.00 | 31 | 1024.0 |
| 20260902171511 | 85 | 218 | 3.0 | 12.0 | 0.00 | 0.00 | 0.00 | 31 | 1024.1 |
| 20260902170006 | 84 | 260 | 3.0 | 10.0 | 0.00 | 0.00 | 0.00 | 33 | 1024.2 |
| 20260902164502 | 83 | 281 | 0.0 | 11.0 | 0.00 | 0.00 | 0.00 | 36 | 1024.2 |
| 20260902163102 | 82 | 247 | 2.0 | 9.0 | 0.00 | 0.00 | 0.00 | 37 | 1024.2 |
| 20260902161553 | 82 | 274 | 1.0 | 7.0 | 0.00 | 0.00 | 0.00 | 38 | 1024.2 |
| 20260902160050 | 81 | 271 | 0.0 | 8.0 | 0.00 | 0.00 | 0.00 | 39 | 1024.1 |
| 20260902154544 | 79 | 271 | 0.0 | 7.0 | 0.00 | 0.00 | 0.00 | 40 | 1024.1 |
| 20260902153050 | 78 | 228 | 0.0 | 0.0 | 0.00 | 0.00 | 0.00 | 42 | 1024.0 |
| 20260902151535 | 77 | 271 | 0.0 | 0.0 | 0.00 | 0.00 | 0.00 | 44 | 1024.1 |
| 20260902150031 | 76 | 353 | 0.0 | 0.0 | 0.00 | 0.00 | 0.00 | 45 | 1024.1 |
| 20260902144526 | 74 | 356 | 0.0 | 0.0 | 0.00 | 0.00 | 0.00 | 49 | 1024.0 |
| 20260902143022 | 72 | 48 | 0.0 | 0.0 | 0.00 | 0.00 | 0.00 | 52 | 1023.9 |
| 20260902141517 | 71 | 63 | 0.0 | 0.0 | 0.00 | 0.00 | 0.00 | 56 | 1024.0 |
| 20260902140014 | 69 | 56 | 0.0 | 0.0 | 0.00 | 0.00 | 0.00 | 59 | 1024.0 |
| 20260902134509 | 66 | 55 | 0.0 | 0.0 | 0.00 | 0.00 | 0.00 | 63 | 1023.9 |
| 20260902133004 | 64 | 20 | 0.0 | 0.0 | 0.00 | 0.00 | 0.00 | 64 | 1023.8 |
| 20260902131701 | 0 | 0.0 | 0.0 | 0.00 | 0.00 | 0.00 | 1023.6 | ||
| 20260902130055 | 0 | 0.0 | 0.0 | 0.00 | 0.00 | 0.00 | 1023.4 | ||
| 20260902124552 | 0 | 0.0 | 0.0 | 0.00 | 0.00 | 0.00 | 1023.4 | ||
| 20260902123053 | 0 | 0.0 | 0.0 | 0.00 | 0.00 | 0.00 | 1023.2 | ||
| 20260902121545 | 0 | 0.0 | 0.0 | 0.00 | 0.00 | 0.00 | 1023.1 | ||
| 20260902120042 | 0 | 0.0 | 0.0 | 0.00 | 0.00 | 0.00 | 1023.0 | ||
| 20260902114543 | 0 | 0.0 | 0.0 | 0.00 | 0.00 | 0.00 | 1023.0 | ||
| 20260902113037 | -90 | 113 | 0.0 | 0.0 | 0.00 | 0.00 | 0.00 | 60 | 1022.9 |
| 20260902111531 | 64 | 113 | 0.0 | 0.0 | 0.00 | 0.00 | 0.00 | 61 | 1022.9 |
| 20260902110040 | 64 | 112 | 0.0 | 0.0 | 0.00 | 0.00 | 0.00 | 61 | 1022.9 |
| 20260902104530 | 65 | 121 | 0.0 | 0.0 | 0.00 | 0.00 | 0.00 | 59 | 1022.9 |
| 20260902103029 | 64 | 111 | 0.0 | 0.0 | 0.00 | 0.00 | 0.00 | 60 | 1022.9 |
| 20260902101532 | 64 | 125 | 0.0 | 0.0 | 0.00 | 0.00 | 0.00 | 60 | 1022.9 |
| 20260902100024 | 64 | 125 | 0.0 | 0.0 | 0.00 | 0.00 | 0.00 | 60 | 1022.9 |
| 20260902094525 | 65 | 125 | 0.0 | 0.0 | 0.00 | 0.00 | 0.00 | 60 | 1022.9 |
| 20260902093030 | 64 | 125 | 0.0 | 0.0 | 0.00 | 0.00 | 0.00 | 59 | 1022.9 |
| 20260902091517 | 65 | 125 | 0.0 | 0.0 | 0.00 | 0.00 | 0.00 | 57 | 1022.9 |
| 20260902090015 | 66 | 126 | 0.0 | 0.0 | 0.00 | 0.00 | 0.00 | 56 | 1023.0 |
| 20260902084513 | 67 | 126 | 0.0 | 0.0 | 0.00 | 0.00 | 0.00 | 55 | 1022.9 |
| 20260902083006 | 67 | 125 | 0.0 | 0.0 | 0.00 | 0.00 | 0.00 | 54 | 1022.9 |
| 20260902081506 | 67 | 126 | 0.0 | 0.0 | 0.00 | 0.00 | 0.00 | 55 | 1022.8 |
| 20260902080002 | 68 | 101 | 0.0 | 0.0 | 0.00 | 0.00 | 0.00 | 54 | 1022.8 |
| 20260902074612 | 69 | 110 | 0.0 | 0.0 | 0.00 | 0.00 | 0.00 | 53 | 1022.8 |
| 20260902073102 | 69 | 93 | 0.0 | 0.0 | 0.00 | 0.00 | 0.00 | 53 | 1022.8 |
| 20260902071554 | 70 | 121 | 0.0 | 0.0 | 0.00 | 0.00 | 0.00 | 52 | 1022.8 |
| 20260902070052 | 71 | 110 | 0.0 | 0.0 | 0.00 | 0.00 | 0.00 | 51 | 1022.7 |
| 20260902064550 | 72 | 96 | 0.0 | 0.0 | 0.00 | 0.00 | 0.00 | 50 | 1022.7 |
| 20260902063047 | 72 | 118 | 0.0 | 0.0 | 0.00 | 0.00 | 0.00 | 52 | 1022.8 |
| 20260902061558 | 71 | 101 | 0.0 | 0.0 | 0.00 | 0.00 | 0.00 | 53 | 1022.8 |
| 20260902060055 | 72 | 105 | 0.0 | 0.0 | 0.00 | 0.00 | 0.00 | 52 | 1022.7 |
| 20260902054605 | 73 | 89 | 0.0 | 0.0 | 0.00 | 0.00 | 0.00 | 51 | 1022.8 |
| 20260902053057 | 74 | 116 | 0.0 | 0.0 | 0.00 | 0.00 | 0.00 | 49 | 1022.8 |
| 20260902051540 | 75 | 101 | 1.0 | 10.0 | 0.00 | 0.00 | 0.00 | 49 | 1023.0 |
| 20260902050040 | 76 | 88 | 0.0 | 1.0 | 0.00 | 0.00 | 0.00 | 44 | 1023.0 |
| 20260902044540 | 75 | 139 | 0.0 | 0.0 | 0.00 | 0.00 | 0.00 | 47 | 1023.0 |
| 20260902043043 | 74 | 110 | 0.0 | 0.0 | 0.00 | 0.00 | 0.00 | 48 | 1023.0 |
| 20260902041540 | 74 | 285 | 0.0 | 0.0 | 0.00 | 0.00 | 0.00 | 50 | 1023.0 |
| 20260902040047 | 75 | 285 | 0.0 | 0.0 | 0.00 | 0.00 | 0.00 | 50 | 1022.9 |
| 20260902034539 | 76 | 216 | 0.0 | 0.0 | 0.00 | 0.00 | 0.00 | 46 | 1022.7 |
| 20260902033037 | 76 | 94 | 0.0 | 0.0 | 0.00 | 0.00 | 0.00 | 46 | 1022.5 |
| 20260902031543 | 76 | 93 | 0.0 | 0.0 | 0.00 | 0.00 | 0.00 | 45 | 1022.3 |
| 20260902030036 | 77 | 108 | 0.0 | 0.0 | 0.00 | 0.00 | 0.00 | 44 | 1022.2 |
| 20260902024539 | 78 | 100 | 0.0 | 1.0 | 0.00 | 0.00 | 0.00 | 42 | 1022.0 |
| 20260902023041 | 78 | 104 | 0.0 | 1.0 | 0.00 | 0.00 | 0.00 | 44 | 1021.8 |
| 20260902021534 | 78 | 114 | 0.0 | 5.0 | 0.00 | 0.00 | 0.00 | 44 | 1021.5 |
| 20260902020037 | 79 | 102 | 0.0 | 7.0 | 0.00 | 0.00 | 0.00 | 41 | 1021.4 |
| 20260902014534 | 79 | 116 | 1.0 | 8.0 | 0.00 | 0.00 | 0.00 | 40 | 1021.2 |
| 20260902013032 | 80 | 88 | 2.0 | 8.0 | 0.00 | 0.00 | 0.00 | 39 | 1021.0 |
| 20260902011534 | 83 | 318 | 0.0 | 0.0 | 0.00 | 0.00 | 0.00 | 33 | 1020.8 |
| 20260902010032 | 84 | 240 | 0.0 | 1.0 | 0.00 | 0.00 | 0.00 | 31 | 1020.8 |
| 20260902004531 | 85 | 295 | 0.0 | 0.0 | 0.00 | 0.00 | 0.00 | 30 | 1020.8 |
| 20260902003033 | 85 | 230 | 0.0 | 1.0 | 0.00 | 0.00 | 0.00 | 31 | 1020.8 |
| 20260902001540 | 85 | 243 | 2.0 | 8.0 | 0.00 | 0.00 | 0.00 | 30 | 1020.9 |
| 20260902000035 | 85 | 299 | 3.0 | 12.0 | 0.00 | 0.00 | 0.00 | 30 | 1020.9 |
| 20260901234529 | 86 | 267 | 7.0 | 12.0 | 0.00 | 0.00 | 0.00 | 29 | 1020.7 |
| 20260901233027 | 87 | 242 | 5.0 | 14.0 | 0.00 | 0.00 | 0.00 | 29 | 1020.7 |
| 20260901231528 | 87 | 257 | 4.0 | 8.0 | 0.00 | 0.00 | 0.00 | 29 | 1020.6 |
| 20260901230027 | 87 | 236 | 4.0 | 10.0 | 0.00 | 0.00 | 0.00 | 28 | 1020.7 |
| 20260901224525 | 87 | 245 | 1.0 | 9.0 | 0.00 | 0.00 | 0.00 | 28 | 1020.7 |
| 20260901223025 | 88 | 256 | 4.0 | 8.0 | 0.00 | 0.00 | 0.00 | 26 | 1020.8 |
| 20260901221524 | 88 | 271 | 2.0 | 12.0 | 0.00 | 0.00 | 0.00 | 27 | 1020.9 |
| 20260901220023 | 87 | 271 | 0.0 | 1.0 | 0.00 | 0.00 | 0.00 | 27 | 1020.9 |
| 20260901214522 | 86 | 263 | 0.0 | 5.0 | 0.00 | 0.00 | 0.00 | 27 | 1021.1 |
| 20260901213021 | 85 | 8 | 7.0 | 17.0 | 0.00 | 0.00 | 0.00 | 33 | 1021.1 |
| 20260901211520 | 87 | 52 | 6.0 | 12.0 | 0.00 | 0.00 | 0.00 | 30 | 1021.4 |
| 20260901210020 | 89 | 198 | 0.0 | 11.0 | 0.00 | 0.00 | 0.00 | 26 | 1021.5 |
| 20260901204517 | 89 | 267 | 1.0 | 15.0 | 0.00 | 0.00 | 0.00 | 25 | 1021.7 |
| 20260901203013 | 89 | 129 | 1.0 | 12.0 | 0.00 | 0.00 | 0.00 | 27 | 1022.0 |
| 20260901201509 | 88 | 268 | 4.0 | 12.0 | 0.00 | 0.00 | 0.00 | 27 | 1022.1 |
| 20260901200004 | 87 | 246 | 4.0 | 8.0 | 0.00 | 0.00 | 0.00 | 28 | 1022.2 |
| 20260901194501 | 87 | 266 | 5.0 | 10.0 | 0.00 | 0.00 | 0.00 | 28 | 1022.5 |
| 20260901193057 | 87 | 95 | 0.0 | 10.0 | 0.00 | 0.00 | 0.00 | 28 | 1022.7 |